軌道要素
Epoch 2023 Feb. 25.0 TT = JDT 2460000.5
T 2023 Jan. 22.70270 TT Rudenko
q 5.0690801 (2000.0) P Q
z +0.0004041 Peri. 76.68998 +0.64294043 -0.71859780
+/-0.0000006 Node 32.07940 -0.73657334 -0.67497370
e 0.9979518 Incl. 150.06346 +0.20996981 -0.16741481
>From 342 observations 2021 June 19-2023 May 21, mean residual 0".5.
|